This is the latest recevied weather packets stored in our database for station/object N2XP-3. If no packets are shown the sender has not sent any weather packets the latest 10 day(s).
| Time | Temp. | Humidity | Pressure | Rain* | Wind** | Luminosity | Snow |
|---|---|---|---|---|---|---|---|
| 1777828452 | 13.89° C | 39% | 1009.5 hPa | 0 mm | 4.92 m/s, 242° | - | - |
| 1777828356 | 13.89° C | 42% | 1009.6 hPa | 0 mm | 2.24 m/s, 229° | - | - |
| 1777828149 | 13.89° C | 42% | 1009.6 hPa | 0 mm | 2.24 m/s, 229° | - | - |
| 1777827850 | 13.89° C | 41% | 1009.6 hPa | 0 mm | 1.79 m/s, 319° | - | - |
| 1777827549 | 13.89° C | 41% | 1009.8 hPa | 0 mm | 4.47 m/s, 103° | - | - |
| 1777826716 | 13.89° C | 43% | 1009.9 hPa | 0 mm | 0.45 m/s, 204° | - | - |
| 1777826679 | 13.89° C | 43% | 1009.9 hPa | 0 mm | 0.45 m/s, 204° | - | - |
| 1777826642 | 13.89° C | 43% | 1009.9 hPa | 0 mm | 0.45 m/s, 204° | - | - |
| 1777826340 | 13.33° C | 43% | 1009.9 hPa | 0 mm | 1.34 m/s, 42° | - | - |
| 1777826041 | 13.33° C | 42% | 1010 hPa | 0 mm | 1.34 m/s, 167° | - | - |
| 1777825741 | 13.33° C | 43% | 1010.1 hPa | 0 mm | 0.45 m/s, 184° | - | - |
| 1777825137 | 12.78° C | 43% | 1010.2 hPa | 0 mm | 0.45 m/s, 340° | - | - |
| 1777824525 | 13.33° C | 42% | 1010.2 hPa | 0 mm | 1.79 m/s, 48° | - | - |
| 1777824209 | 13.33° C | 43% | 1010.3 hPa | 0 mm | 0.45 m/s, 167° | - | - |
| 1777823909 | 13.33° C | 43% | 1010.3 hPa | 0 mm | 2.68 m/s, 18° | - | - |
| 1777823606 | 12.78° C | 44% | 1010.2 hPa | 0 mm | 3.13 m/s, 311° | - | - |
| 1777823306 | 12.78° C | 44% | 1010.3 hPa | 0 mm | 1.79 m/s, 111° | - | - |
| 1777823006 | 12.78° C | 44% | 1010.3 hPa | 0 mm | 2.24 m/s, 187° | - | - |
| 1777822702 | 13.33° C | 45% | 1010.2 hPa | 0 mm | 3.13 m/s, 255° | - | - |
| 1777822402 | 12.78° C | 47% | 1010.2 hPa | 0 mm | 2.24 m/s, 233° | - | - |
| 1777822103 | 12.22° C | 47% | 1010.2 hPa | 0 mm | 1.34 m/s, 260° | - | - |
| 1777821893 | 11.67° C | 46% | 1010.5 hPa | 0 mm | 1.34 m/s, 174° | - | - |
| 1777821792 | 11.67° C | 46% | 1010.5 hPa | 0 mm | 1.34 m/s, 174° | - | - |
| 1777821193 | 11.67° C | 47% | 1010.3 hPa | 0 mm | 1.79 m/s, 44° | - | - |
| 1777820884 | 11.67° C | 46% | 1010.4 hPa | 0 mm | 4.47 m/s, 238° | - | - |
* Rain latest hour (hover to see other rain measurements)
** Current wind speed in m/s (hover to see current wind gust speed)